Miscellaneous Local Product
Issued by NWS North Platte, NE

Home | Current Version | Previous Version | Text Only | Print | Product List | Glossary On
Versions: 1 2 3 4 5 6 7 8 9 10 11 12 13 14 15 16 17 18 19 20 21 22 23 24 25 26 27 28 29 30 31 32 33 34 35 36 37 38 39 40 41 42 43 44 45 46 47 48 49 50
000
AXUS43 KLBF 020110
MISLBF


WESTERN AND NORTH CENTRAL NEBRASKA HOURLY WEATHER ROUNDUP
NATIONAL WEATHER SERVICE NORTH PLATTE NE
800 PM CDT SAT AUG 01 2015

***STATIONS NOT REPORTING VARIABLES SUCH AS SKY/WEATHER OR
PRESSURE ARE PROVIDED BY THE NEBRASKA DEPARTMENT OF
ROADS...RAWS...AND APRS NETWORKS...AND ARE NOT UNDER
NATIONAL WEATHER SERVICE QUALITY CONTROL***

...OBSERVATIONS IN AND NEAR THE EASTERN PANHANDLE OF NEBRASKA...

CITY           SKY/WX    TMP DP  RH WIND       PRES   REMARKS
PINE RIDGE     MOSUNNY   80  65  59 E13       29.95S
CHADRON        SUNNY     87  57  35 S12       29.91F
ALLIANCE       SUNNY     81  58  45 SE8       29.97F
SIDNEY         PTSUNNY   69  55  60 E32G43    30.05R
BIG SPRINGS      N/A     71  62  74 N3          N/A
$$

...OBSERVATIONS IN NORTH CENTRAL NEBRASKA...

CITY           SKY/WX    TMP DP  RH WIND       PRES   REMARKS
VALENTINE      SUNNY     78  59  51 SW10      29.94F
THEDFORD       MOCLDY    80  60  51 S9        29.96F
AINSWORTH      CLEAR     78  60  55 SW6       29.95S
O`NEILL        CLEAR     81  61  49 S8        29.90F
ORD            MOCLDY    76  61  59 S3        29.91F
BROKEN BOW     CLOUDY    78  60  53 SE3       29.93F
SPRINGVIEW       N/A     81  62  51 W6          N/A
CHAMBERS         N/A     79  56  44 S3          N/A
EWING            N/A     78  62  58 SW3         N/A
$$

...OBSERVATIONS IN SOUTHWEST NEBRASKA AND FAR NORTHEAST COLORADO...

CITY           SKY/WX    TMP DP  RH WIND       PRES   REMARKS
WRAY           FAIR      87  47  25 SE14G23   30.00S
IMPERIAL       PTSUNNY   88  50  27 S15       29.97F
OGALLALA       TSTM      67  62  83 E20       30.03R
NORTH PLATTE   MOCLDY    75  63  66 E7        29.94F
MCCOOK         CLEAR     88  56  33 S8        29.94F
LEXINGTON      MOCLDY    80  64  58 S8        29.94F
PAXTON           N/A     76  60  56 S13         N/A
BRADY            N/A     77  64  64 CALM        N/A
CALLAWAY         N/A     77  66  68 S10         N/A
$$

...NORTH PLATTE AREA...

CITY           SKY/WX    TMP DP  RH WIND       PRES   REMARKS
AIRPORT        MOCLDY    75  63  66 E7        29.94F
DOWNTOWN         N/A     79  64  60 CALM        N/A
SANDRIDGE        N/A     78  63  60 E3          N/A
HILLCREST        N/A     77  62  60 SE9         N/A
$$

...SOME WEATHER OBSERVATIONS FROM AROUND THE REGION...

CITY           SKY/WX    TMP DP  RH WIND       PRES   REMARKS
DENVER         PTSUNNY   88  48  25 SE21      30.05S
LARAMIE        PTSUNNY   78  40  25 E10       30.21S
CHEYENNE       MOSUNNY   81  45  28 SE5       30.13S
SCOTTSBLUFF    MOSUNNY   79  57  46 E15       29.99R
RAPID CITY     SUNNY     86  58  38 S6        29.91F
PIERRE         SUNNY     89  46  22 NW9       29.80R
WINNER         FAIR      86  57  37 SW15      29.87F
SIOUX FALLS    PTCLDY    81  63  54 SW9       29.84F
OMAHA          PTCLDY    83  70  64 SE9       29.89F
GRAND ISLAND   MOCLDY    76  67  73 SE3       29.93F
KANSAS CITY    PTCLDY    77  63  61 SE17      29.96S
WICHITA        PTCLDY    86  70  58 S8        29.95R HX  90
HAYS           CLEAR     88  61  40 S12       29.95S
LIBERAL        CLEAR     84  64  51 S12       29.98F
GOODLAND       CLEAR     85  53  33 SE18G24   30.02F
$$



USA.gov is the U.S. government's official web portal to all federal, state and local government web resources and services.